Probability
3 3 0 0 0 0 3 3 0 0 0 0 3 3 3 3 3 0 0 0 0 0 0 0 0 0 0 0 0 0 0 0 0 0 0 0 0 0 0 0 0 0 0
3 3 0 0 0 0 0 0 0 0 0 0 0 0 3 3 3 0 0 0 0 0 0 0 0 0 0 0 0 0 0 0 0 0 0 0 0 0 0 0 0 0 0
6 3 3 0 3 3 0 0 0 0 0 0 0 3 3 3 0 0 0 0 0 0 0 0 0 0 0 0 0 0 0 0 0 0 0 0 0 0 0 0 0 0 0
3 3 3 3 3 0 0 0 0 0 0 0 0 3 0 0 0 0 0 0 0 0 0 0 0 0 0 0 0 0 0 0 0 0 0 0 0 0 0 0 0 0 0
3 3 3 6 3 0 0 0 0 0 0 0 0 3 3 3 0 0 0 0 0 0 0 0 0 0 0 0 0 0 0 0 0 0 0 0 0 0 0 0 0 0 0
6 6 3 6 0 0 0 0 0 0 0 3 3 3 3 0 0 0 0 0 0 0 0 0 0 0 0 0 0 0 0 0 0 0 0 0 0 0 0 0 0 0 0
0 3 3 6 6 3 3 3 3 3 3 3 3 3 0 0 0 0 0 0 0 0 0 0 0 0 0 0 0 0 0 0 0 0 0 0 0 0 0 0 0 0 0
0 0 3 3 3 3 0 0 0 0 0 0 0 0 0 0 0 0 0 0 0 0 0 0 0 0 0 0 0 0 0 0 0 0 0 0 0 0 0 0 0 0 0
0 0 0 3 3 3 3 0 0 0 0 0 0 0 0 0 0 0 0 0 0 0 0 0 0 0 0 0 0 0 0 0 0 0 0 0 0 0 0 0 0 0 0
0 0 0 0 0 3 3 0 0 0 0 0 0 0 0 0 0 0 0 0 0 0 0 0 0 0 0 0 0 0 0 0 0 0 0 0 0 0 0 0 0 0 0
0 0 0 0 0 0 3 3 0 0 0 0 0 0 0 0 0 0 0 0 0 0 0 0 0 0 0 0 0 0 0 0 0 0 0 0 0 0 0 0 0 0 0
0 0 0 0 0 0 0 0 0 0 0 0 0 0 0 0 0 0 0 0 0 0 0 0 0 0 0 0 0 0 0 0 0 0 0 0 0 0 0 0 0 0 0
0 0 0 0 0 0 0 0 0 0 0 0 0 0 0 0 0 0 0 0 0 0 0 0 0 0 0 0 0 0 0 0 0 0 0 0 0 0 0 0 0 0 0
0 0 0 0 0 0 3 0 3 0 0 0 0 0 0 0 0 0 0 0 0 0 0 0 0 0 0 0 0 0 0 0 0 0 0 0 0 0 0 0 0 0 0
0 0 0 0 0 0 0 3 3 0 0 0 0 0 0 0 0 0 0 0 0 0 0 0 0 0 0 0 0 0 0 0 0 0 0 0 0 0 0 0 0 0 0
0 0 0 0 0 0 0 0 0 0 0 0 0 0 0 0 0 0 0 0 0 0 0 0 0 0 0 0 0 0 0 0 0 0 0 0 0 0 0 0 0 0 0
0 0 0 0 0 0 0 0 0 0 0 0 0 0 0 0 0 0 0 0 0 0 0 0 0 0 0 0 0 0 0 0 0 0 0 0 0 0 0 0 0 0 0
0 0 0 0 0 0 0 0 0 0 0 0 0 0 0 0 0 0 0 0 0 0 0 0 0 0 0 0 0 0 0 0 0 0 0 0 0 0 0 0 0 0 0
0 0 0 0 0 0 0 0 0 0 0 0 0 0 0 0 0 0 0 0 0 0 0 0 0 0 0 0 0 0 0 0 0 0 0 0 0 0 0 0 0 0 0
0 0 0 0 0 0 0 0 0 0 0 0 0 0 0 0 0 0 0 0 0 0 0 0 0 0 0 0 0 0 0 0 0 0 0 0 0 0 0 0 0 0 0
0 0 0 0 0 0 0 0 0 0 0 0 0 0 0 0 0 0 0 0 0 0 0 0 0 0 0 0 0 0 0 0 0 0 0 0 0 0 0 0 0 0 0
0 0 0 0 0 0 0 0 0 0 0 0 0 0 0 0 0 0 0 0 0 0 0 0 0 0 0 0 0 0 0 0 0 0 0 0 0 0 0 0 0 0 0
0 0 0 0 0 0 0 0 0 0 0 0 0 0 0 0 0 0 0 0 0 0 0 0 0 0 0 0 0 0 0 0 0 0 0 0 0 0 0 0 0 0 0
0 0 0 0 0 0 0 0 0 0 0 0 0 0 0 0 0 0 0 0 0 0 0 0 0 0 0 0 0 0 0 0 0 0 0 0 0 0 0 0 0 0 0
0 0 0 0 0 0 0 0 0 0 0 0 0 0 0 0 0 0 0 0 0 0 0 0 0 0 0 0 0 0 0 0 0 0 0 0 0 0 0 0 0 0 0
0 0 0 0 0 0 0 0 0 0 0 0 0 0 0 0 0 0 0 0 0 0 0 0 0 0 0 0 0 0 0 0 0 0 0 0 0 0 0 0 0 0 0
Height
5856 5857 5858 5859 5859 5860 5861 5862 5862 5862 5863 5863 5863 5863 5863 5863 5863 5863 5862 5862 5862 5861 5861 5860 5859 5858 5857 5856 5855 5854 5852 5851 5850 5848 5846 5844 5842 5841 5838 5836 5834 5832 5830
5852 5853 5854 5855 5856 5857 5858 5858 5859 5859 5859 5860 5860 5860 5860 5860 5860 5859 5859 5859 5859 5858 5858 5857 5856 5855 5854 5853 5852 5851 5849 5848 5846 5844 5842 5840 5839 5837 5834 5832 5830 5827 5825
5848 5849 5850 5851 5852 5853 5854 5854 5855 5855 5856 5856 5856 5856 5856 5856 5856 5856 5856 5856 5855 5855 5854 5853 5852 5851 5851 5849 5848 5847 5845 5844 5842 5840 5838 5836 5834 5832 5830 5827 5825 5822 5819
5844 5845 5846 5847 5848 5849 5850 5851 5851 5852 5852 5852 5852 5853 5853 5852 5852 5852 5852 5852 5852 5851 5850 5849 5849 5848 5847 5846 5844 5843 5841 5840 5838 5836 5834 5831 5829 5827 5824 5822 5819 5816 5813
5840 5841 5842 5843 5844 5845 5846 5847 5847 5848 5848 5848 5848 5849 5849 5848 5849 5849 5848 5848 5847 5847 5846 5845 5844 5843 5842 5841 5840 5838 5837 5835 5833 5831 5829 5826 5824 5821 5818 5815 5813 5810 5806
5835 5836 5837 5839 5840 5841 5842 5843 5843 5844 5844 5844 5844 5844 5844 5844 5844 5844 5844 5844 5843 5842 5841 5841 5840 5839 5838 5836 5835 5833 5832 5830 5828 5825 5823 5821 5818 5815 5812 5809 5805 5802 5799
5830 5832 5833 5834 5835 5836 5837 5838 5839 5839 5840 5840 5840 5840 5840 5840 5840 5839 5839 5839 5838 5837 5836 5835 5834 5833 5832 5831 5829 5828 5826 5824 5822 5819 5817 5814 5811 5808 5805 5802 5798 5794 5790
5825 5827 5828 5829 5831 5832 5832 5833 5834 5835 5835 5835 5835 5835 5835 5835 5835 5835 5834 5833 5833 5831 5830 5829 5828 5828 5826 5825 5823 5822 5820 5817 5815 5812 5810 5807 5804 5800 5797 5794 5790 5786 5781
5820 5822 5823 5824 5826 5827 5827 5828 5829 5830 5830 5831 5831 5830 5830 5830 5830 5830 5829 5828 5827 5825 5824 5823 5822 5821 5820 5818 5817 5815 5813 5811 5808 5805 5802 5799 5796 5792 5788 5785 5781 5777 5772
5815 5817 5818 5819 5821 5821 5822 5823 5824 5824 5825 5826 5826 5826 5826 5826 5825 5824 5823 5822 5821 5819 5818 5817 5816 5815 5814 5812 5810 5808 5806 5803 5800 5797 5794 5791 5787 5783 5780 5775 5771 5767 5762
5810 5812 5813 5814 5815 5816 5817 5818 5819 5819 5820 5821 5821 5821 5820 5820 5819 5819 5817 5816 5815 5814 5812 5811 5810 5808 5807 5805 5803 5801 5798 5795 5792 5789 5786 5782 5778 5774 5770 5766 5761 5756 5751
5805 5806 5808 5809 5810 5811 5812 5813 5813 5814 5814 5815 5815 5815 5815 5814 5814 5813 5811 5810 5809 5808 5806 5805 5803 5802 5800 5798 5795 5793 5790 5787 5784 5780 5777 5773 5769 5765 5760 5755 5750 5745 5739
5800 5801 5802 5803 5804 5805 5806 5807 5808 5808 5809 5809 5809 5809 5809 5808 5808 5807 5805 5804 5803 5801 5800 5798 5797 5795 5793 5790 5787 5785 5782 5779 5775 5772 5768 5764 5759 5755 5750 5745 5739 5734 5728
5795 5796 5797 5798 5799 5800 5801 5802 5802 5803 5803 5804 5804 5803 5803 5802 5802 5800 5799 5798 5796 5795 5793 5792 5790 5787 5785 5782 5779 5776 5773 5770 5766 5762 5758 5754 5749 5744 5739 5734 5729 5723 5717
5789 5790 5791 5792 5793 5794 5795 5796 5797 5798 5798 5798 5798 5797 5797 5796 5796 5794 5793 5792 5790 5788 5786 5784 5782 5780 5777 5774 5771 5768 5764 5761 5757 5753 5748 5744 5739 5734 5729 5723 5718 5712 5706
5783 5784 5786 5787 5788 5789 5790 5790 5791 5792 5792 5792 5792 5791 5791 5790 5789 5788 5787 5785 5783 5782 5780 5777 5775 5772 5769 5766 5763 5759 5755 5752 5748 5743 5739 5734 5729 5724 5718 5713 5707 5700 5694
5777 5778 5780 5781 5782 5783 5784 5784 5785 5785 5785 5785 5785 5785 5784 5783 5782 5781 5780 5778 5776 5774 5772 5770 5767 5764 5761 5758 5754 5751 5747 5743 5738 5734 5729 5724 5719 5713 5708 5702 5696 5690 5684
5771 5772 5773 5775 5776 5776 5777 5778 5778 5779 5779 5778 5778 5778 5777 5776 5775 5774 5773 5771 5769 5767 5765 5762 5759 5756 5753 5749 5746 5742 5738 5733 5729 5724 5719 5714 5709 5703 5697 5691 5685 5679 5673
5764 5765 5767 5768 5769 5769 5770 5770 5771 5771 5772 5771 5771 5771 5770 5769 5768 5767 5765 5764 5762 5759 5757 5754 5751 5747 5744 5740 5737 5733 5728 5724 5719 5714 5709 5704 5699 5693 5687 5681 5675 5668 5662
5757 5758 5759 5760 5761 5762 5762 5763 5764 5764 5764 5764 5764 5763 5762 5761 5760 5759 5757 5755 5753 5751 5748 5745 5742 5739 5735 5731 5727 5723 5719 5714 5709 5704 5699 5694 5688 5682 5676 5670 5664 5657 5651
5750 5751 5752 5753 5753 5754 5755 5755 5756 5756 5756 5756 5756 5755 5754 5753 5752 5750 5748 5747 5744 5742 5739 5736 5733 5729 5726 5722 5717 5713 5709 5704 5699 5694 5689 5683 5677 5671 5665 5659 5653 5646 5640
5742 5743 5744 5745 5746 5746 5747 5747 5747 5748 5748 5747 5747 5746 5745 5744 5743 5741 5740 5737 5735 5732 5730 5727 5723 5720 5716 5712 5707 5703 5698 5694 5689 5684 5679 5673 5667 5661 5655 5648 5642 5635 5628
5734 5735 5736 5737 5737 5738 5738 5739 5739 5739 5739 5738 5738 5737 5736 5735 5733 5732 5730 5728 5725 5722 5719 5716 5713 5710 5706 5701 5697 5693 5688 5683 5678 5673 5668 5663 5657 5651 5644 5638 5631 5624 5618
5726 5727 5728 5728 5729 5729 5730 5730 5730 5730 5730 5729 5729 5728 5727 5725 5724 5722 5720 5717 5715 5712 5709 5706 5703 5699 5695 5691 5687 5682 5677 5673 5668 5663 5657 5652 5646 5640 5634 5627 5621 5614 5607
5717 5718 5719 5719 5720 5720 5721 5721 5721 5721 5720 5720 5719 5718 5717 5715 5714 5712 5709 5707 5704 5702 5699 5695 5692 5688 5684 5680 5676 5671 5667 5662 5657 5651 5646 5641 5635 5629 5623 5616 5610 5603 5597
5708 5709 5710 5710 5711 5711 5711 5711 5712 5711 5711 5710 5709 5708 5706 5705 5703 5701 5699 5696 5694 5691 5688 5685 5681 5677 5673 5669 5665 5661 5656 5651 5646 5640 5635 5630 5624 5618 5612 5606 5599 5593 5586
Wind_Speed
15 15 14 14 14 14 13 13 13 13 13 12 12 12 12 11 11 11 11 11 10 10 10 10 10 10 11 11 11 11 12 13 13 14 14 15 16 16 17 17 18 19 20
16 16 16 15 15 15 14 14 14 14 14 14 14 13 13 12 11 11 11 11 11 12 12 12 12 12 12 12 12 12 13 14 14 15 16 16 17 18 18 19 20 21 21
17 17 16 16 16 16 15 15 14 14 14 14 14 14 14 14 13 13 13 13 13 13 13 13 13 13 13 14 14 14 14 14 15 16 17 18 19 20 20 21 22 23 23
17 17 16 16 16 16 15 15 15 15 15 14 13 14 14 14 14 14 14 14 15 15 15 14 14 14 14 15 15 15 16 17 18 18 19 20 21 22 23 23 24 25 26
17 18 17 16 17 16 16 15 15 15 15 15 14 14 14 14 14 15 15 16 16 16 16 16 16 16 17 17 17 17 18 19 20 21 21 22 23 24 25 26 27 28 28
18 18 18 18 17 17 16 15 16 16 15 15 15 15 15 15 16 16 16 16 16 17 17 18 17 18 18 19 19 20 21 22 22 23 23 24 25 25 26 27 28 29 31
19 19 18 17 17 17 17 16 16 16 16 16 15 16 16 16 16 17 17 17 17 18 19 19 19 19 20 21 21 22 23 23 24 25 25 26 26 27 28 29 30 32 33
18 19 19 18 18 18 17 17 17 17 17 16 16 16 17 17 16 17 17 18 19 20 20 20 21 21 21 22 22 23 24 24 25 26 27 28 29 29 31 32 33 34 35
18 19 19 19 19 19 19 19 19 18 17 17 17 17 17 16 17 17 18 19 20 21 21 22 22 22 22 23 24 24 25 26 27 29 29 30 31 32 33 34 35 36 37
19 19 19 20 20 20 20 20 19 19 18 18 17 17 17 18 19 19 20 20 20 21 22 22 22 22 23 24 25 26 27 28 29 30 31 32 33 34 35 36 37 38 39
18 18 19 19 19 19 19 19 19 19 19 18 18 18 18 18 19 20 21 21 21 21 21 22 22 23 24 25 26 27 28 29 30 32 33 34 35 35 37 38 39 40 41
17 17 18 19 19 19 19 19 18 18 19 19 19 20 19 19 20 20 21 21 21 21 22 22 23 24 25 26 28 28 29 31 32 33 34 35 36 37 38 40 41 41 42
18 18 18 18 19 19 19 18 18 18 18 19 19 19 20 20 21 21 21 21 21 22 22 23 24 25 26 28 29 30 31 32 33 34 35 36 37 39 40 41 42 42 44
20 19 18 18 19 18 18 18 18 18 19 19 19 19 20 20 20 20 21 21 21 22 23 24 25 26 27 29 30 31 32 33 34 35 36 37 39 40 40 41 42 43 44
20 20 19 19 19 19 18 18 18 18 18 19 19 19 19 20 20 20 20 20 21 22 23 25 26 27 28 29 30 31 33 34 35 36 37 38 39 40 40 41 43 44 45
20 20 20 19 19 19 19 19 19 19 20 20 20 20 20 20 21 21 21 21 22 23 24 25 26 27 28 29 31 32 33 34 35 37 37 38 39 40 41 43 44 44 45
21 21 21 21 20 21 21 20 20 20 21 21 21 21 21 21 22 22 22 23 24 25 25 26 28 29 29 30 32 33 34 35 36 37 38 39 40 41 42 43 43 44 44
22 22 22 22 22 22 21 21 21 21 21 22 22 23 23 23 23 23 23 24 25 26 27 28 29 30 31 32 33 34 35 36 37 37 38 39 40 41 42 42 43 43 43
22 23 23 23 23 23 23 23 23 23 23 23 24 24 24 23 23 24 25 26 27 28 29 30 31 32 32 33 34 35 35 36 37 38 39 40 41 42 42 42 43 43 44
22 23 24 24 24 24 24 24 25 25 24 25 25 25 24 24 25 26 27 28 29 29 30 31 32 33 34 35 35 36 36 37 39 39 40 40 41 42 42 43 44 44 45
23 24 25 25 24 24 24 25 26 26 26 27 27 27 26 26 27 28 29 30 30 31 32 32 33 34 35 35 36 37 37 38 39 39 40 40 40 41 42 43 45 45 45
24 24 25 25 25 25 25 26 27 27 28 28 28 28 28 28 29 29 30 31 32 33 33 34 34 35 35 36 37 37 38 39 39 40 40 40 41 42 42 43 44 44 45
26 25 25 26 27 26 26 27 28 29 29 29 28 29 29 29 30 31 32 33 34 34 35 35 36 36 37 37 38 38 39 39 39 40 40 41 42 42 43 44 45 45 45
27 26 26 27 27 28 28 28 28 28 29 29 29 29 30 31 31 32 33 35 35 36 36 36 37 37 38 38 38 38 39 39 39 40 41 42 42 43 44 45 45 45 45
28 27 27 27 27 27 28 28 29 29 29 30 30 31 32 32 33 33 34 35 36 36 37 37 38 38 39 39 39 39 39 40 41 41 42 42 43 44 44 45 45 45 44
28 29 29 29 29 29 29 29 29 30 30 31 32 32 33 33 34 35 35 36 37 37 38 38 38 39 39 39 39 40 40 41 42 42 43 43 43 44 44 45 44 44 44
Wind_Direction
238 240 243 245 247 247 248 251 253 254 256 258 259 261 262 263 263 265 271 275 276 279 282 285 287 292 292 292 292 292 294 297 300 301 303 304 304 303 304 304 303 303 303
241 242 244 245 246 246 248 252 254 255 255 257 258 259 259 261 264 265 269 273 274 278 281 283 285 288 288 289 291 292 295 297 300 302 303 304 304 303 301 302 302 302 302
244 244 244 245 245 246 249 253 256 258 258 259 260 259 260 260 261 264 266 270 274 277 280 283 286 288 287 288 290 291 293 294 297 299 300 301 302 303 303 301 300 300 300
244 246 246 247 246 247 248 252 255 258 260 262 261 263 260 259 260 264 266 269 273 275 278 280 283 285 287 290 293 293 295 295 296 298 300 300 301 302 302 301 300 299 300
246 248 246 246 246 246 248 251 255 257 260 262 262 264 265 264 263 264 266 270 273 275 277 279 280 283 286 288 290 292 294 296 296 296 298 299 301 301 301 301 300 300 301
248 248 246 245 246 247 250 252 255 258 261 265 264 265 267 267 265 265 267 270 273 276 278 279 280 283 285 287 289 291 292 294 296 297 297 298 300 301 301 301 301 301 301
248 245 244 245 247 248 251 253 256 258 261 265 266 266 266 267 268 268 268 271 275 278 280 280 281 283 286 288 289 291 293 294 296 297 298 298 299 300 301 301 300 300 300
248 246 245 245 247 250 251 253 256 259 262 265 266 267 266 267 269 271 270 272 275 278 280 281 281 282 285 288 290 291 293 295 296 297 299 299 299 300 301 301 301 301 301
247 246 246 246 247 250 252 255 257 259 261 265 268 267 267 268 272 274 275 278 280 282 281 280 279 281 285 288 290 292 293 295 296 297 299 299 299 300 301 301 301 302 303
246 247 248 247 250 252 255 259 260 259 259 264 268 268 268 270 272 276 279 281 284 284 283 283 282 283 286 288 291 292 294 295 297 298 298 299 299 300 301 302 303 303 304
245 246 248 249 252 254 256 258 259 259 259 262 265 268 270 273 275 278 280 282 283 284 284 284 284 285 288 290 291 293 295 296 297 299 299 300 300 302 303 303 304 305 305
248 247 249 250 251 253 254 256 257 256 259 263 265 267 270 274 278 281 283 282 282 283 285 286 286 287 289 292 293 293 295 296 298 299 300 301 302 303 304 304 305 306 306
250 251 253 253 252 254 255 255 255 256 260 263 266 269 272 276 280 283 283 283 284 285 286 288 289 289 290 292 293 294 296 298 299 300 301 301 302 303 304 304 305 306 307
249 251 252 252 252 253 255 256 258 260 263 267 269 272 275 276 280 283 285 284 285 286 288 289 291 291 293 294 295 295 297 299 300 301 302 302 303 304 305 305 306 307 308
249 249 250 249 250 252 254 257 259 262 265 268 272 274 277 278 280 282 284 285 286 288 290 292 292 292 294 296 297 297 298 299 301 303 304 304 304 305 305 307 308 308 309
249 250 251 251 251 252 255 257 260 262 264 269 273 276 279 281 281 283 284 287 289 290 292 294 295 296 297 297 298 299 300 301 302 304 304 305 306 307 307 308 308 309 309
249 249 251 252 253 255 255 257 260 263 265 268 272 276 279 281 282 284 286 288 291 292 293 294 296 298 299 299 300 302 302 302 302 304 306 307 307 307 308 308 309 309 309
250 250 251 253 256 258 257 258 261 265 268 270 273 277 279 280 282 284 286 288 291 292 293 294 297 299 300 300 301 302 303 303 304 305 306 307 307 308 308 309 309 310 310
251 251 253 254 256 258 257 259 261 264 267 271 274 276 277 278 280 283 286 289 291 292 293 295 297 298 299 300 301 302 303 303 304 305 306 307 307 308 308 308 309 309 309
253 255 256 256 257 258 259 260 263 265 269 272 274 276 277 278 281 283 286 288 290 292 294 296 297 298 299 300 301 302 302 303 304 305 306 307 308 309 308 308 308 308 308
255 256 257 259 260 261 261 262 264 266 269 272 274 275 276 278 281 283 286 288 290 292 293 296 298 299 300 300 301 301 302 303 304 305 307 308 309 310 309 309 309 309 308
256 258 259 260 262 263 264 266 267 267 269 272 275 275 275 278 281 283 286 288 290 292 293 295 298 299 300 300 301 301 302 303 304 306 307 308 309 310 311 311 311 311 310
258 259 261 262 262 264 265 267 268 268 270 273 275 277 278 279 282 284 286 288 290 291 293 294 296 298 299 300 301 301 302 303 304 305 306 308 309 310 311 312 312 312 311
259 259 261 263 264 263 265 266 268 270 272 273 275 277 279 281 282 283 286 287 288 290 292 294 295 297 298 300 300 301 302 303 304 305 306 307 308 309 310 312 312 313 313
258 260 262 263 263 264 265 267 268 271 273 275 277 278 280 282 283 285 287 288 289 291 292 294 295 296 298 299 300 302 303 303 304 305 306 307 308 309 311 312 312 313 314
258 260 262 263 263 265 267 268 269 272 274 276 278 280 281 283 284 286 288 288 290 291 292 294 295 296 297 298 300 301 303 304 305 305 306 307 308 310 311 312 313 313 313